Zurück zum Katalog

STARLINK-32720

AktivKommunikationVLEO
NORAD 62451·PAYLOAD·🇺🇸 United States

Gestartet Dec 29, 2024 von Vandenberg Space Force Base

Loading…

Nächste Überflüge (nächste 24 Stunden)

TLE

AktuellSource: CelesTrak SupGP

Epoche: Sep 15, 2026, 03:11 UTC

1 62451C 24251V   26258.13312500  .00000110  00000+0  32525-5 0  2581
2 62451  53.1576 172.6091 0001413  70.1191 227.0138 15.34389591    13

Verfolge STARLINK-32720 in Echtzeit mit AllMySat

Download on the App Store